カタログに戻る

USA 76 DEB

LostHEO
NORAD 44302·DEBRIS·🇺🇸 United States

打ち上げ Nov 8, 1991 から Vandenberg Space Force Base

Loading…

次のパス (今後24時間)

TLE

古いSource: Space-Track

元期: Sep 23, 2019, 04:33 UTC

1 44302U 91076P   19266.18989757  .00000013  00000-0  00000+0 0  9997
2 44302  63.3233 155.7607 3364683 269.7485  52.4686  5.52417745  6401

AllMySatでUSA 76 DEBをリアルタイム追跡

Download on the App Store